Regional Weather Roundup
Issued by NWS Little Rock, AR

Home | Current Version | Previous Version | Graphics & Text | Print | Product List | Glossary On
Versions: 1 2 3 4 5 6 7 8 9 10 11 12 13 14 15 16 17 18 19 20 21 22 23 24 25 26 27 28 29 30 31 32 33 34 35 36 37 38 39 40 41 42 43 44 45 46 47 48 49 50
000
ASUS44 KLZK 230805
RWRLZK

WEATHER ROUNDUP FOR ARKANSAS
NATIONAL WEATHER SERVICE LITTLE ROCK AR
300 AM CDT SAT JUN 23 2018

NOTE: "FAIR" INDICATES FEW OR NO CLOUDS BELOW 12,000 FEET WITH NO
SIGNIFICANT WEATHER AND/OR OBSTRUCTIONS TO VISIBILITY.

ARZ001-003-010-029-230900-
NORTHWEST ARKANSAS

CITY           SKY/WX    TMP DP  RH WIND       PRES   REMARKS
FAYETTEVILLE   CLOUDY    66  64  93 S3        29.82F
FORT SMITH     LGT RAIN  77  67  71 NW13      29.81R
HARRISON       PTCLDY    67  63  87 NW8       29.83S
BENTONVILLE    CLOUDY    72  65  78 NW3       29.83F
ROGERS         MOCLDY    70  65  84 N3        29.83F
SILOAM SPGS    MOCLDY    70  65  84 W5        29.83F
HIGHFILL       CLOUDY    72  63  73 NW7       29.82F
$$

ARZ004-005-016-230900-
NORTH CENTRAL ARKANSAS

CITY           SKY/WX    TMP DP  RH WIND       PRES   REMARKS
BATESVILLE     CLEAR     68  66  93 CALM      29.78
FLIPPIN        CLEAR     65  63  93 S5        29.82R
MTN HOME       CLEAR     66  66 100 CALM      29.80F
$$

ARZ040-041-230900-
WEST CENTRAL ARKANSAS

CITY           SKY/WX    TMP DP  RH WIND       PRES   REMARKS
MENA           PTCLDY    72  72 100 CALM      29.80S
MOUNT IDA      MOCLDY    70  69  97 CALM      29.77R
$$

ARZ009-017-025-026-028-230900-
NORTHEAST ARKANSAS

CITY           SKY/WX    TMP DP  RH WIND       PRES   REMARKS
CORNING        CLOUDY    72  72 100 NW3       29.78R
JONESBORO      FAIR      70  70 100 CALM      29.76
NEWPORT        FAIR      73  71  93 CALM      29.76S
WALNUT RIDGE     N/A     72  69  90 N7        29.77R
BLYTHEVILLE    FAIR      72  67  84 N3        29.76F
$$

ARZ022-023-033-042-044-230900-
CENTRAL ARKANSAS

CITY           SKY/WX    TMP DP  RH WIND       PRES   REMARKS
LITTLE ROCK    MOCLDY    76  76 100 W3        29.75S VSB 1
N LITTLE ROCK    N/A     74  69  86 CALM      29.77R
JACKSONVILLE   CLEAR     69  67  93 CALM      29.75R
CONWAY         CLOUDY    72  68  88 CALM      29.76R
SEARCY         FAIR      69  69 100 NW5       29.77R
HOT SPRINGS    PTCLDY    75  69  81 CALM      29.77R
RUSSELLVILLE   PTCLDY    72  66  81 NW6       29.78R
CLINTON        FAIR      66  64  94 CALM      29.80R
$$

ARZ036-230900-
EAST ARKANSAS

CITY           SKY/WX    TMP DP  RH WIND       PRES   REMARKS
WEST MEMPHIS   CLOUDY    75  74  96 S7        29.75S
$$

ARZ050-053-066-070-073-230900-
SOUTHWEST ARKANSAS

CITY           SKY/WX    TMP DP  RH WIND       PRES   REMARKS
ARKADELPHIA    FOG       74  73  97 CALM      29.76R VSB 1/4
CAMDEN         FAIR      77  73  88 CALM      29.75S FOG
TEXARKANA      CLEAR     80  76  87 SW10      29.76S HX  86
EL DORADO      FAIR      78  77  96 S7        29.77F
DE QUEEN       PTCLDY    74  74 100 CALM      29.75R
$$

ARZ056-057-069-230900-
SOUTHEAST ARKANSAS

CITY           SKY/WX    TMP DP  RH WIND       PRES   REMARKS
PINE BLUFF     FAIR      75  72  90 VRB3      29.76S
STUTTGART      MOCLDY    76  74  93 S7        29.76F
MONTICELLO     FAIR      76  74  93 S8        29.77R

$$





USA.gov is the U.S. government's official web portal to all federal, state and local government web resources and services.